Temperature
6 6 7 7 7 7 7 8 8 8 8 8 8 8 9 9 9 9 9 9 9 9 9 9 9 9 9 9 9 9 9 9 9 9 9 9 8 8 8 7 7 7 6
6 6 6 6 7 7 7 7 7 7 7 7 8 8 8 8 8 8 8 8 8 8 9 9 9 9 9 9 9 8 8 8 8 8 8 8 8 8 7 7 6 6 6
5 5 5 5 6 6 6 6 6 6 6 7 7 7 7 7 7 7 8 8 8 8 8 8 8 8 8 8 8 8 8 8 8 8 8 8 7 7 6 6 6 5 5
4 4 5 4 5 5 5 5 5 5 5 6 6 6 6 6 6 6 7 7 7 7 7 7 7 7 7 7 7 7 7 7 7 7 7 7 6 6 6 5 5 5 4
4 4 4 4 4 4 4 4 4 4 4 4 4 5 5 5 5 5 5 6 6 6 6 6 6 6 6 6 6 6 6 6 6 6 6 6 5 5 5 5 5 4 4
3 3 3 3 3 3 3 3 3 3 3 3 4 4 4 4 4 4 4 4 5 5 5 5 5 5 5 5 5 6 5 5 5 5 5 5 6 6 5 5 4 3 3
2 2 2 2 2 2 2 2 2 2 3 3 3 3 3 3 3 3 3 3 3 3 4 4 4 4 4 4 5 5 5 5 5 5 5 5 5 5 5 4 4 3 3
2 2 1 1 1 1 1 1 1 1 1 1 1 1 2 2 2 2 2 2 2 2 2 3 3 3 3 3 3 3 4 4 4 4 4 4 4 4 4 4 4 3 2
1 1 0 0 0 0 -0 -0 -0 -0 -0 -0 -0 0 0 0 0 1 1 1 1 1 1 2 2 2 2 2 2 2 2 3 3 3 3 3 3 3 3 3 3 2 2
0 -0 -1 -1 -1 -1 -1 -1 -1 -1 -1 -1 -1 -1 -1 -1 -1 -1 -1 -1 -1 -0 0 0 1 1 1 1 1 1 1 2 2 2 2 3 3 2 2 3 3 2 2
-1 -1 -1 -2 -2 -2 -2 -2 -2 -2 -2 -2 -2 -2 -2 -2 -2 -2 -2 -2 -2 -2 -2 -1 -1 -1 -0 -0 -0 0 1 1 1 1 1 2 2 2 2 2 2 2 1
-1 -1 -2 -2 -2 -2 -3 -3 -3 -3 -3 -3 -3 -3 -3 -3 -3 -3 -3 -3 -3 -3 -3 -3 -2 -2 -1 -1 -1 -1 -0 -0 0 0 0 1 1 1 1 1 1 1 1
-2 -2 -2 -2 -3 -3 -3 -3 -4 -4 -4 -4 -4 -4 -4 -4 -4 -4 -4 -4 -4 -4 -4 -4 -3 -3 -3 -2 -2 -1 -1 -1 -1 -0 -0 -0 0 1 1 0 0 0 0
-2 -2 -3 -3 -3 -4 -4 -4 -5 -5 -5 -6 -6 -6 -6 -5 -5 -5 -5 -5 -5 -5 -4 -4 -4 -4 -3 -3 -3 -2 -2 -2 -2 -1 -1 -1 -1 -0 -0 -0 -0 -0 -1
-3 -3 -3 -4 -4 -4 -5 -5 -5 -6 -6 -7 -7 -7 -7 -7 -6 -6 -7 -6 -6 -5 -5 -5 -5 -4 -4 -3 -3 -3 -3 -3 -2 -2 -2 -2 -1 -1 -1 -1 -1 -1 -1
-4 -4 -4 -5 -5 -5 -6 -6 -6 -6 -6 -7 -7 -7 -8 -7 -7 -7 -7 -7 -6 -6 -6 -6 -5 -5 -5 -4 -4 -4 -4 -3 -3 -3 -2 -2 -2 -2 -2 -1 -1 -1 -1
-4 -5 -5 -6 -6 -7 -7 -7 -7 -7 -7 -7 -7 -8 -8 -8 -8 -7 -7 -7 -7 -7 -6 -6 -6 -6 -6 -5 -5 -5 -4 -4 -4 -3 -3 -3 -3 -2 -2 -2 -2 -2 -2
-5 -5 -6 -6 -7 -7 -8 -8 -8 -9 -8 -8 -8 -8 -8 -8 -8 -8 -8 -8 -7 -7 -7 -7 -7 -6 -6 -6 -6 -5 -5 -5 -4 -4 -4 -3 -3 -3 -3 -2 -2 -2 -3
-6 -6 -7 -7 -8 -8 -8 -9 -9 -9 -9 -9 -9 -8 -8 -8 -8 -8 -8 -8 -8 -8 -7 -7 -7 -7 -7 -6 -6 -6 -5 -5 -5 -4 -4 -4 -3 -3 -3 -3 -2 -3 -3
-6 -7 -7 -8 -8 -8 -9 -9 -9 -9 -9 -9 -9 -9 -9 -9 -9 -9 -9 -9 -8 -8 -8 -8 -8 -7 -7 -7 -6 -6 -6 -5 -5 -5 -4 -4 -4 -3 -3 -3 -3 -3 -3
-7 -7 -8 -8 -9 -9 -9 -10 -10 -10 -10 -10 -10 -9 -10 -10 -9 -9 -9 -9 -9 -9 -8 -8 -8 -7 -7 -7 -7 -6 -6 -5 -5 -5 -5 -4 -4 -4 -3 -3 -3 -3 -3
-8 -8 -9 -9 -9 -9 -10 -10 -10 -10 -10 -10 -10 -10 -10 -10 -10 -9 -9 -9 -9 -9 -8 -8 -8 -8 -7 -7 -7 -6 -6 -6 -5 -5 -5 -5 -4 -4 -4 -4 -4 -4 -4
-8 -9 -9 -9 -9 -10 -10 -10 -10 -10 -10 -10 -10 -10 -10 -10 -10 -10 -10 -9 -9 -9 -9 -8 -8 -8 -7 -7 -7 -6 -6 -6 -5 -5 -5 -5 -5 -5 -4 -4 -4 -4 -4
-9 -9 -9 -9 -10 -10 -10 -10 -10 -10 -10 -10 -10 -10 -10 -10 -10 -10 -10 -10 -9 -9 -9 -8 -8 -8 -7 -7 -7 -6 -6 -6 -6 -5 -5 -5 -5 -5 -5 -5 -5 -5 -4
-9 -9 -9 -10 -10 -10 -10 -10 -10 -11 -11 -11 -11 -11 -11 -10 -10 -10 -10 -10 -9 -9 -8 -8 -8 -8 -7 -7 -7 -7 -6 -6 -6 -6 -5 -5 -5 -5 -5 -5 -5 -5 -5
-9 -9 -9 -10 -10 -10 -11 -11 -11 -11 -11 -11 -11 -11 -11 -10 -10 -10 -10 -10 -9 -9 -9 -8 -8 -8 -7 -7 -7 -6 -6 -6 -6 -6 -6 -6 -5 -5 -5 -5 -5 -5 -5
Wind_Speed
12 12 12 11 11 12 11 11 10 10 10 8 6 5 3 1 1 2 2 3 5 6 6 7 8 6 6 6 6 6 6 6 6 3 2 3 6 8 8 10 11 11 10
11 11 11 11 12 12 12 12 11 11 11 10 9 8 7 5 2 1 3 3 5 6 7 7 8 6 8 7 7 8 7 6 5 5 4 5 5 8 8 7 7 9 9
10 10 11 11 12 11 11 11 11 11 11 11 10 10 9 9 6 3 3 4 5 6 6 7 8 8 9 7 8 8 7 6 5 5 5 4 3 5 6 5 5 4 7
9 9 10 10 9 9 9 10 10 10 10 10 10 9 9 8 8 7 5 4 5 5 5 6 7 8 9 9 8 9 7 7 6 6 5 5 4 5 6 6 5 4 4
8 9 8 8 8 8 8 8 9 9 10 9 9 9 8 7 8 9 8 6 6 6 6 6 6 7 9 8 7 8 8 7 7 7 6 5 6 7 8 6 6 5 3
6 7 7 7 8 8 8 8 8 8 8 8 9 9 9 8 13 14 11 7 6 6 6 5 5 6 7 9 10 10 11 10 10 8 7 9 9 8 7 7 6 5 5
6 6 6 7 7 7 7 8 8 8 8 8 8 8 9 11 16 16 15 9 7 6 6 6 5 5 6 5 7 9 10 12 12 10 10 10 9 11 10 9 8 6 5
6 6 7 7 7 7 7 8 7 6 7 7 8 8 8 11 16 17 16 9 6 6 6 6 6 6 5 5 5 6 6 8 9 8 9 9 9 11 13 11 9 6 3
6 7 7 7 7 7 7 7 6 6 6 6 7 7 8 11 16 17 15 7 6 7 6 6 7 6 9 9 6 6 6 6 7 9 9 9 12 14 13 9 8 7 4
6 6 6 6 6 7 7 7 6 6 7 7 8 7 8 9 14 17 15 6 7 7 6 6 9 10 11 11 7 6 8 7 5 4 6 8 9 13 18 13 11 8 4
6 6 6 6 6 7 6 6 7 7 7 8 8 8 8 10 13 16 16 8 7 8 7 6 6 12 13 13 10 8 9 7 5 5 5 5 6 7 9 8 9 8 6
6 6 7 7 6 7 7 7 7 7 8 8 8 9 7 8 11 13 16 15 13 9 8 7 8 13 14 14 10 10 11 8 4 5 5 6 7 7 6 7 7 5 4
6 7 7 8 7 6 7 8 7 6 6 8 8 9 8 7 8 16 17 17 17 10 8 13 15 16 14 10 11 12 9 5 5 6 7 7 6 6 6 5 6 6 7
6 7 7 7 7 7 6 6 7 7 7 9 9 9 9 8 7 7 8 10 13 11 9 12 15 15 11 10 9 7 5 5 6 7 6 5 5 6 7 6 6 6 5
6 7 7 7 7 7 7 6 8 7 9 11 10 10 11 11 12 18 14 10 9 10 11 7 5 5 5 4 4 5 4 4 5 4 5 5 6 7 7 6 6 6 6
7 7 7 7 7 7 8 9 12 13 18 19 18 17 14 17 22 22 22 21 21 20 13 7 7 6 6 6 6 5 5 5 5 5 5 6 7 8 8 7 6 7 7
6 8 7 7 8 8 9 10 12 13 16 18 18 19 19 21 22 22 22 21 20 18 10 7 7 7 7 6 6 6 6 5 5 5 6 6 7 8 8 9 9 7 7
7 9 9 7 8 8 9 9 10 12 13 11 13 18 20 20 20 20 20 17 11 9 6 7 7 7 7 6 6 6 5 5 5 5 5 6 7 8 9 10 10 9 8
7 6 7 7 8 8 9 9 9 11 11 12 11 12 17 18 19 18 16 8 8 8 7 7 7 7 6 6 6 6 6 6 6 5 5 6 7 8 9 9 10 14 10
6 11 11 8 8 9 9 9 10 10 11 11 11 10 10 12 10 10 8 7 8 8 8 7 7 7 6 6 6 6 6 5 6 5 5 5 6 7 9 10 11 11 9
6 8 13 10 8 9 9 10 10 10 11 11 11 13 18 11 10 10 9 8 8 8 8 7 7 6 6 6 6 6 6 5 5 5 5 5 6 7 7 8 10 10 9
6 7 8 9 9 9 10 9 10 10 11 12 11 12 18 11 9 9 9 9 8 7 7 7 6 6 6 6 6 6 5 5 5 5 5 5 6 6 7 8 9 10 10
6 7 8 9 9 12 11 9 10 10 11 11 11 11 11 10 9 9 10 9 8 8 7 7 6 6 6 5 5 6 6 6 5 5 6 6 6 7 7 8 10 12 12
5 6 8 9 9 9 9 10 10 11 11 11 11 11 10 10 10 11 10 9 9 8 8 7 7 7 9 7 5 5 5 5 5 5 7 6 7 7 8 8 10 11 12
5 6 7 8 8 9 9 10 10 11 11 11 11 11 11 11 10 10 9 9 9 9 10 9 7 7 8 8 7 5 7 8 7 5 6 6 7 8 9 9 9 11 11
5 6 7 7 8 8 9 10 10 11 11 11 10 10 11 10 10 10 9 9 9 9 9 8 8 8 9 7 7 8 8 9 8 7 5 5 7 8 9 8 10 11 12
Wind_Direction
36 35 35 33 34 35 35 28 25 24 23 19 13 13 5 334 226 221 238 238 231 229 222 223 228 223 221 222 220 217 216 211 226 203 177 167 175 179 176 174 175 174 177
33 36 35 33 34 34 30 24 23 25 22 19 18 17 15 7 352 273 251 247 244 243 237 232 234 228 227 224 222 222 219 210 209 208 189 180 186 183 174 170 171 175 178
31 34 34 31 30 29 25 21 20 21 20 18 18 16 10 5 357 337 301 275 257 251 248 243 240 230 232 231 226 224 221 213 205 201 191 177 170 168 164 165 166 166 177
30 33 32 26 24 22 20 20 18 17 17 13 11 9 4 359 359 353 334 310 291 278 264 254 247 238 237 233 228 225 217 210 202 196 188 173 169 167 166 172 178 182 184
28 29 23 17 17 18 17 15 13 14 11 5 3 0 357 355 355 351 343 324 304 294 282 267 259 256 252 245 235 222 212 212 205 201 194 185 184 178 187 175 184 172 182
23 17 8 8 10 10 7 5 6 4 1 1 360 354 351 349 344 344 340 327 316 300 291 285 274 259 261 260 254 237 221 214 211 210 210 203 202 192 179 176 169 172 201
12 6 2 1 1 357 356 358 356 352 351 350 347 346 340 336 340 338 334 326 311 302 295 290 288 276 270 255 258 252 240 230 220 215 213 209 199 192 181 182 184 183 190
1 355 351 351 349 346 350 348 341 336 337 333 331 330 327 328 334 334 330 322 307 299 292 287 284 280 266 258 249 249 247 240 231 225 223 214 202 189 188 188 184 164 114
348 341 337 338 337 336 334 327 321 320 320 317 315 317 317 317 326 328 327 313 305 300 294 289 286 279 276 270 254 247 254 258 250 230 225 218 202 192 182 166 163 170 180
326 321 320 322 321 319 314 311 311 312 309 311 309 307 305 305 317 322 323 312 306 302 296 287 286 286 284 275 260 244 245 249 231 223 219 215 206 198 190 185 178 176 160
311 312 313 313 310 305 305 304 307 308 309 308 303 301 298 302 311 316 318 317 305 302 297 293 286 288 285 281 277 262 254 253 228 216 211 204 195 194 193 188 181 175 171
312 314 313 312 311 315 309 306 305 307 309 307 305 304 296 297 306 310 313 311 310 298 294 291 287 289 286 283 281 272 267 261 235 213 211 209 200 195 190 180 170 159 150
321 316 312 311 309 308 307 308 309 306 305 306 305 304 304 299 300 308 311 310 309 302 292 292 292 289 286 280 274 273 270 251 227 223 220 217 204 185 165 151 135 118 90
314 311 309 309 309 307 304 301 300 300 300 303 304 304 304 302 295 294 295 300 302 299 293 289 290 288 283 277 271 266 257 242 235 232 225 207 179 173 177 170 165 155 136
311 309 310 308 304 306 304 296 299 286 290 300 299 299 301 301 298 303 303 299 297 292 295 287 280 280 269 263 261 256 249 244 242 229 216 203 190 187 184 172 163 161 164
319 318 315 314 312 312 312 311 307 306 306 305 302 300 298 297 302 304 303 301 300 299 296 285 281 276 272 268 266 264 253 244 240 230 217 207 199 192 184 174 169 171 171
314 315 314 316 316 316 314 314 313 313 311 308 307 306 304 305 306 306 306 304 300 300 291 280 278 275 272 267 263 262 260 248 235 228 221 209 199 192 185 180 177 174 170
315 315 317 309 309 308 308 308 307 309 312 311 310 309 309 310 309 308 307 307 301 296 280 278 275 275 272 268 263 262 261 252 240 232 226 212 198 193 188 183 181 177 171
318 313 311 307 306 305 305 305 305 305 305 305 307 310 313 313 311 308 308 299 292 289 283 278 275 275 275 272 266 260 254 252 241 229 223 216 201 192 190 185 181 178 170
312 315 319 313 310 308 307 307 307 307 307 306 307 309 312 311 309 307 302 291 289 288 285 280 277 274 274 272 269 262 257 251 235 224 217 211 200 193 189 183 179 177 175
306 311 318 315 309 308 308 307 307 308 307 307 306 307 312 311 309 306 303 297 292 291 288 283 277 273 271 270 268 262 256 251 240 222 209 205 196 192 187 181 176 174 168
304 307 311 310 310 308 307 307 308 308 308 307 307 309 315 313 306 304 304 303 301 295 291 285 280 274 271 268 266 263 255 247 239 220 207 203 192 184 181 176 173 170 166
304 308 311 311 310 310 313 310 309 309 308 308 309 311 312 312 310 308 306 306 305 302 298 289 282 279 276 272 262 255 253 247 237 218 203 197 188 181 179 177 173 170 170
304 307 310 310 310 309 309 309 310 310 310 310 310 311 312 313 311 310 310 309 307 305 301 295 286 280 278 279 275 265 257 255 241 218 199 194 189 182 178 177 176 174 172
304 305 307 307 308 308 309 309 309 310 311 312 312 312 312 312 310 310 310 309 307 304 301 297 290 284 277 275 275 272 267 263 252 223 199 193 188 182 178 176 175 171 170
304 303 303 305 305 306 307 308 309 310 311 311 311 310 310 310 310 310 310 309 310 308 305 301 291 286 283 277 274 273 269 256 243 228 204 191 185 182 176 175 173 173 169
Height
1445 1444 1443 1442 1442 1441 1440 1440 1440 1439 1439 1439 1439 1439 1439 1440 1442 1444 1446 1448 1450 1452 1453 1455 1457 1459 1460 1462 1464 1465 1466 1467 1467 1468 1470 1472 1474 1475 1477 1480 1482 1484 1486
1448 1447 1446 1444 1443 1442 1441 1441 1440 1439 1439 1438 1438 1437 1437 1437 1438 1439 1441 1443 1444 1446 1447 1448 1450 1451 1452 1454 1455 1456 1457 1459 1460 1461 1462 1464 1466 1469 1471 1473 1476 1478 1480
1451 1450 1448 1446 1445 1444 1443 1442 1441 1440 1439 1437 1437 1436 1435 1434 1434 1435 1436 1437 1438 1439 1440 1441 1442 1443 1444 1445 1447 1448 1449 1451 1452 1453 1454 1457 1459 1461 1463 1466 1469 1471 1473
1454 1452 1450 1448 1447 1446 1444 1443 1441 1440 1438 1437 1436 1435 1434 1433 1431 1431 1431 1431 1432 1432 1433 1434 1435 1435 1436 1438 1438 1440 1441 1442 1444 1445 1446 1448 1451 1453 1456 1458 1461 1464 1467
1455 1453 1452 1450 1449 1447 1446 1444 1442 1440 1438 1437 1435 1434 1432 1430 1428 1427 1426 1426 1426 1426 1426 1426 1427 1427 1428 1430 1430 1431 1433 1434 1435 1437 1438 1440 1443 1445 1448 1451 1454 1457 1459
1456 1454 1453 1451 1449 1447 1445 1443 1441 1439 1437 1435 1433 1431 1429 1427 1426 1424 1422 1421 1420 1420 1419 1419 1419 1420 1421 1421 1422 1423 1425 1425 1427 1429 1430 1432 1434 1437 1441 1443 1446 1449 1452
1457 1454 1452 1450 1448 1445 1443 1441 1439 1437 1435 1433 1430 1428 1426 1424 1423 1421 1419 1417 1415 1414 1413 1412 1412 1412 1413 1414 1414 1415 1416 1417 1420 1421 1422 1424 1427 1430 1433 1436 1438 1441 1444
1456 1453 1451 1448 1446 1443 1441 1439 1436 1434 1432 1429 1427 1425 1422 1420 1418 1416 1414 1412 1410 1409 1407 1406 1405 1405 1405 1406 1407 1407 1407 1409 1411 1413 1415 1418 1421 1423 1426 1429 1431 1435 1438
1454 1451 1449 1447 1444 1441 1438 1436 1433 1430 1428 1425 1423 1420 1418 1415 1413 1411 1408 1406 1404 1403 1402 1400 1400 1399 1399 1399 1399 1399 1400 1402 1404 1405 1407 1409 1412 1415 1418 1421 1423 1427 1429
1452 1450 1447 1445 1442 1439 1436 1433 1429 1426 1423 1421 1418 1416 1413 1410 1408 1406 1403 1401 1398 1396 1395 1394 1394 1393 1393 1392 1392 1392 1393 1394 1396 1397 1399 1401 1404 1407 1409 1412 1415 1419 1421
1450 1447 1445 1442 1438 1435 1432 1429 1426 1422 1419 1416 1413 1410 1408 1405 1402 1400 1398 1395 1393 1390 1389 1388 1387 1387 1386 1386 1386 1386 1386 1387 1388 1389 1391 1393 1396 1399 1401 1405 1408 1411 1415
1447 1444 1441 1438 1435 1431 1428 1424 1421 1418 1414 1410 1407 1403 1401 1399 1397 1394 1392 1390 1388 1385 1383 1382 1381 1380 1379 1379 1379 1379 1379 1380 1381 1382 1383 1385 1388 1391 1394 1398 1401 1405 1409
1443 1440 1437 1434 1430 1427 1423 1419 1416 1412 1409 1404 1401 1397 1394 1392 1390 1388 1386 1383 1381 1379 1377 1375 1374 1373 1372 1372 1372 1372 1372 1373 1373 1374 1376 1378 1381 1384 1388 1391 1394 1398 1401
1439 1436 1432 1429 1425 1422 1418 1415 1411 1407 1403 1400 1396 1392 1389 1386 1384 1382 1379 1377 1375 1373 1371 1369 1368 1367 1366 1366 1365 1365 1365 1366 1366 1367 1369 1371 1374 1377 1380 1383 1387 1390 1394
1434 1431 1427 1424 1420 1416 1413 1410 1406 1402 1400 1396 1392 1389 1385 1381 1379 1377 1374 1371 1369 1367 1365 1363 1361 1360 1359 1359 1358 1358 1359 1359 1360 1361 1362 1364 1366 1369 1373 1376 1380 1384 1387
1430 1426 1423 1419 1415 1411 1406 1403 1400 1398 1394 1391 1387 1384 1380 1377 1373 1371 1368 1365 1363 1361 1359 1357 1355 1354 1353 1353 1352 1352 1352 1352 1353 1354 1355 1357 1360 1363 1366 1369 1373 1377 1381
1426 1422 1418 1414 1410 1406 1402 1397 1393 1390 1388 1385 1381 1378 1374 1370 1367 1364 1361 1359 1357 1355 1353 1351 1349 1349 1348 1347 1346 1346 1346 1346 1347 1348 1349 1350 1353 1356 1359 1363 1366 1370 1375
1422 1418 1414 1410 1406 1402 1398 1394 1390 1385 1380 1376 1374 1371 1368 1364 1361 1358 1355 1353 1350 1348 1347 1345 1344 1343 1342 1341 1341 1340 1340 1340 1341 1341 1342 1344 1347 1350 1353 1356 1360 1364 1369
1418 1414 1410 1406 1402 1398 1394 1390 1386 1381 1377 1372 1368 1365 1362 1359 1355 1353 1350 1348 1345 1343 1341 1340 1338 1337 1336 1336 1335 1335 1335 1334 1335 1335 1337 1339 1341 1344 1347 1350 1354 1359 1363
1414 1410 1406 1402 1398 1394 1390 1386 1381 1377 1373 1369 1365 1361 1357 1353 1350 1347 1345 1343 1340 1338 1336 1334 1333 1332 1331 1330 1330 1329 1329 1329 1329 1330 1331 1333 1335 1338 1341 1345 1349 1353 1357
1410 1406 1403 1398 1394 1390 1386 1382 1378 1373 1369 1365 1361 1358 1354 1351 1346 1343 1340 1338 1336 1333 1331 1329 1328 1326 1325 1325 1325 1324 1324 1324 1324 1325 1326 1328 1330 1333 1336 1340 1344 1349 1353
1406 1402 1398 1394 1390 1386 1382 1378 1374 1370 1365 1361 1357 1353 1350 1346 1343 1339 1336 1333 1331 1328 1326 1324 1322 1321 1320 1320 1319 1319 1319 1319 1320 1321 1322 1324 1326 1328 1332 1336 1340 1344 1349
1402 1398 1395 1391 1387 1382 1378 1374 1370 1366 1362 1358 1354 1350 1346 1342 1339 1335 1332 1329 1326 1323 1321 1319 1317 1316 1315 1315 1314 1314 1314 1315 1316 1317 1318 1319 1321 1324 1328 1332 1336 1340 1344
1398 1395 1391 1387 1383 1379 1374 1370 1366 1362 1358 1354 1350 1347 1343 1339 1335 1332 1328 1324 1321 1318 1316 1314 1312 1311 1310 1310 1309 1309 1310 1311 1312 1313 1314 1316 1318 1321 1324 1328 1332 1336 1341
1395 1391 1387 1383 1379 1375 1371 1367 1363 1359 1355 1351 1347 1343 1339 1336 1332 1328 1324 1321 1317 1314 1312 1310 1308 1307 1306 1305 1305 1305 1306 1306 1308 1309 1311 1313 1315 1318 1321 1325 1329 1333 1337
1391 1387 1384 1380 1376 1372 1367 1363 1359 1355 1351 1347 1344 1340 1336 1332 1328 1325 1321 1317 1314 1310 1308 1306 1304 1303 1302 1301 1301 1301 1302 1303 1304 1305 1307 1309 1312 1315 1318 1322 1325 1330 1334